Kalamazoo, MI (49007)

6:42 AM EST on February 11, 2016 (GMT -0500)
Westwood | | Change Station
CLOSE
Current Station
Personal Weather Station
Location: Kalamazoo, MI
Elevation: 955 ft
Nearby Weather Stations
Active Advisory: Winter Weather Advisory Active Notice: Local Storm Report

Elev 955 ft 42.30 °N, 85.62 °W | Updated 9 seconds ago

Overcast
Overcast
13.8 °F
Feels Like 14 °F
N
0.0
Wind Variable Wind from North
Gusts 0.0 mph

Today
High -- | Low -- °F
--% Chance of Precip.
Yesterday
High -- | Low -- °F
Precip. -- in
Pressure 30.19 in
Visibility 10.0 miles
Clouds Overcast 5000 ft
Windchill 14 °F
Dew Point 4 °F
Humidity 65%
Rainfall 0.00 in
Snow Depth Not available.
7:44 AM 6:09 PM
Waxing Crescent, 11% visible
METAR KAZO 111053Z 32006KT 10SM OVC050 M10/M14 A3013 RMK AO2 SLP222 T11001139
Pressure 30.19 in
Visibility 10.0 miles
Clouds Overcast 5000 ft
Windchill 14 °F
Dew Point 4 °F
Humidity 65%
Rainfall 0.00 in
Snow Depth Not available.
7:44 AM 6:09 PM
Waxing Crescent, 11% visible
METAR KAZO 111053Z 32006KT 10SM OVC050 M10/M14 A3013 RMK AO2 SLP222 T11001139

10-Day Weather Forecast

Almanac

Astronomy

Feb. 11, 2016 Rise Set
Actual Time
Civil Twilight
Nautical Twilight
Astronomical Twilight
Moon
Length of Visible Light
Length of Day
Tomorrow will be .
, % of the Moon is Illuminated

Today's Extremes

State Highs State Lows

Community

WunderPhotos

Upload Photos

1,892,030 photos uploaded!

WunderBlog® & News

Nearby

Air Quality

  Air Quality AQ Index Pollutant
Not available.

Snow Depth

Station Depth Elevation

Earthquake Activity

City Distance Mag. Time & Date
Minimum magnitude displayed is 2.5.

Coastal Water Temperatures

Place Temperature

Stations

Nearby Weather Stations

Station Location Temp. Windchill Dew Point Humidity Wind Precip. Elev Updated Type
                   

Watches & Warnings

Winter Weather Advisory
Issued: 3:44 AM EST Feb. 11, 2016 – National Weather Service

... Winter Weather Advisory remains in effect until 10 am EST this
morning...

Hazardous weather...

* occasional snow showers through mid morning... then diminishing.

* An additional 1 to 2 inches of snow can be expected through 10
   am. The storm totals will be 4 to 8 inches... with localized
   higher amounts possible.

Impacts...

* roads will be snow covered and slippery.

* Travel slowdowns and accidents possible.

Precautionary/preparedness actions...

* the Michigan Department of Transportation reminds motorists
   to adjust speeds based on the conditions... and to take it
   slow in ice and snow.

* Weather preparedness information is available on line at
   www.Ready.Gov/winter and http://go.USA.Gov/5og.